Flag for U.S.A. Weather past 2 weeks in Springfield, Missouri, U.S.A.

Now
21 °F

Clear.


Feels Like: 11 °F
Forecast: 18 / 46 °F
Wind: 9 mph from South

Location: Springfield Regional Airport

Current Time: Mar 6, 2015 at 4:10:15 AM

Latest Report: Mar 6, 2015 at 2:52 AM


Visibility: 10 mi

Pressure: 30.51 "Hg

Humidity: 68%

Dew point: 12 °F

Location of SpringfieldLocation

Historic Weather in Springfield — Graph

°F

Springfield temperature yesterday

Maximum temperature yesterday: 33 °F (at 3:52 PM)
Minimum temperature yesterday: 13 °F (at 6:52 AM)
Average temperature yesterday: 23 °F

Past Weeks' High & Low Weather Summary

 TemperatureHumidityPressure
High50 °F (Mar 3, 12:52 PM)97% (Mar 3, 5:52 AM)30.72 "Hg (Mar 3, 5:52 AM)
Low-3 °F (Feb 19, 2:52 AM)34% (Feb 23, 4:52 PM)29.79 "Hg (Feb 25, 3:52 PM)
Average26 °F69%30.27 "Hg
* Reported Feb 19 2:52 AM — Mar 6 2:52 AM, Springfield, Weather by CustomWeather, © 2015

Note: Actual official high and low records may vary slightly from our data, if they occured in-between our weather recording intervals... More about our weather records

Advertising

Springfield weather history for previous 24 hours

 ConditionsComfort  
Time TempWeatherWind HumidityBarometerVisibility
2:52 AM
Fri, Mar 6
21 °FClear.9 mph68%30.51 "Hg10 mi
1:52 AM21 °FClear.9 mph68%30.51 "Hg10 mi
12:52 AM21 °FClear.7 mph68%30.52 "Hg10 mi
11:52 PM
Thu, Mar 5
20 °FClear.7 mph71%30.54 "Hg10 mi
10:52 PM21 °FClear.6 mph68%30.56 "Hg10 mi
9:52 PM20 °FClear.6 mph74%30.56 "Hg10 mi
8:52 PM20 °FClear.3 mph74%30.56 "Hg10 mi
7:52 PM23 °FClear.No wind63%30.56 "Hg10 mi
6:52 PM29 °FClear.3 mph45%30.55 "Hg10 mi
5:52 PM32 °FSunny.3 mph38%30.54 "Hg10 mi
4:52 PM33 °FSunny.3 mph38%30.53 "Hg10 mi
3:52 PM33 °FSunny.6 mph41%30.53 "Hg10 mi
2:52 PM32 °FSunny.7 mph43%30.53 "Hg10 mi
1:52 PM30 °FSunny.9 mph45%30.54 "Hg10 mi
12:52 PM28 °FSunny.10 mph43%30.56 "Hg10 mi
11:52 AM26 °FSunny.9 mph44%30.59 "Hg10 mi
10:52 AM24 °FSunny.10 mph44%30.59 "Hg10 mi
9:52 AM22 °FSunny.9 mph52%30.59 "Hg10 mi
8:52 AM20 °FSunny.12 mph57%30.58 "Hg10 mi
7:52 AM17 °FSunny.7 mph68%30.54 "Hg10 mi
6:52 AM13 °FSunny.8 mph74%30.51 "Hg10 mi
5:52 AM15 °FClear.6 mph70%30.48 "Hg10 mi
4:52 AM16 °FClear.6 mph71%30.46 "Hg10 mi
Weather by CustomWeather, © 2015

See weather overviewHow to use our weather pages